Showing default

COSMOS 1909, 18788

Orbit data source: Space-Track

COSMOS 1909, 18788 is a payload satellite owned by UNKS (CIS) in LEO that was launched on Fri, 15 Jan 1988 UTC via a TSIKLON-3 launch vehicle from the Plesetsk Missile And Space Complex (PKMTR). Payload-class satellites include a variety of spacecraft equipped with specific instruments for various scientific and technological missions. These include communications satellites like Starlink; space stations such as the ISS; scientific satellites like the Hubble; Earth observation satellites from companies like Planet Labs, Umbra, and HawkEye 360; GPS; miniature CubeSats for education and research; and military/defense satellites.

Loading next visibility...
Identifier
18788, 1988-002A
Orbit
LEO
Country
Flag of CISCIS
Related business
Manufacturer
NPO PM
Mission
Defense Communications
Bus & Motor
STRELA-3, Unknown motor
Mass
225 kg wet, 225 kg dry
Launch date (UTC)
1988-01-15 (38 years ago)
Launch vehicle
TSIKLON-3
Launch site
Plesetsk Missile And Space Complex (PKMTR)
Object type
Payload
Rocket body
Debris
Shape & HBR
Cyl, 0.8 m
Radar Cross Section
1.257 m², Large (>1 m²)

Expand to show TLE details & history
Last TLE update: 1 day ago

TLE from 1 day ago
0 COSMOS 1909
1 18788U 88002A   25305.60789101  .00000039  00000-0  15929-3 0  9998
2 18788  82.6120  62.1716 0002663 115.5198 255.7938 12.62863091742081
Epoch: 2025-11-01T14:35Z
TLE epoch observation values (Epoch: 2025-11-01T14:35:21.783Z)
Latitude
11.14436°
Longitude
163.65176°
Altitude
1,413.641 km
Speed
7.154 km/s
True Right ascension
04h 14m 30s
True Declination
11° 05' 05"
Sunlit
Object was in full shadow at epoch
Visualization orbit readout
Latitude
Unknown
Longitude
Unknown
Altitude
Unknown
Speed
Unknown
Apparent Right ascension
Unknown
Apparent Declination
Unknown
Sunlit
N/A
Visualization observer readout
Local Sidereal Time
12:25:01
Azimuth
Unknown
Elevation
Unknown
Doppler factor
Unknown
Orbital elements
Apogee altitude
1,410.541 km
Perigee altitude
1,406.394 km
Semi-major axis
7,786.605 km
Eccentricity
0.00027
Inclination
82.612°
RAAN
62.1716°
Arg. of periapsis
115.5198°
True anomaly
255.76422°
Mean anomaly
255.7938°
Eccentric anomaly
255.77901°
Mean motion
3.15879 °/min
Orbital period
113.97 mins
BSTAR
0.00015929
Loading maneuver chart data...
Computing Atmospheric mass density...
Loading historical data...
Loading historical data...
Loading historical data...
Loading historical data...
Loading historical data...
Loading historical data...
Loading historical data...

Documentation

Showing up to 5 results
|